155  
ASUS43 KIWX 310010  
RWRIWX  
 
KIWX WEATHER ROUNDUP  
NATIONAL WEATHER SERVICE NORTHERN INDIANA  
800 PM EDT THU MAR 30 2017  
 
NOTE: "FAIR" INDICATES FEW OR NO CLOUDS BELOW 12,000 FEET WITH NO  
SIGNIFICANT WEATHER AND/OR S TO VISIBILITY
.  
 
* THESE STATIONS ARE NOT UNDER NWS QUALITY CONTROL. THEY ALSO MAY NOT  
REPORT WEATHER SUCH AS PRECIPITATION OR FOG.
 
 
INZ001>027-310100-  
NORTHERN INDIANA  
 
CITY SKY/WX TMP DP RH WIND PRES REMARKS
 
GARY* CLOUDY 45 43 93 MISG 29.62R FOG  
VALPARAISO LGT RAIN 48 46 93 E9 29.62R  
6HR MIN TEMP: 47; 6HR MAX TEMP: 51; 6HR PCP: 0.21;  
 
MICHIGAN CITY* LGT RAIN 45 45 100 E5 29.62F  
LAPORTE* LGT RAIN 46 44 95 E10 29.62S  
6HR MIN TEMP: 45; 6HR MAX TEMP: 48; 6HR PCP: 0.20;  
 
KNOX* CLOUDY 46 36 66 E6 29.63R  
SOUTH BEND CLOUDY 43 50 100 E9 29.63R  
6HR MIN TEMP: 43; 6HR MAX TEMP: 46; 6HR PCP: 0.41;  
 
ELKHART* CLOUDY 43 39 87 E10 29.63R  
GOSHEN CLOUDY 44 40 85 E10 29.63S  
6HR MIN TEMP: 44; 6HR MAX TEMP: 46; 6HR PCP: 0.15;  
 
MONTICELLO* RAIN 53 52 95 E6 29.61R  
6HR MIN TEMP: 50; 6HR MAX TEMP: 55; 6HR PCP: 0.47;  
 
LOGANSPORT* RAIN 52 52 100 N6 29.63R  
ROCHESTER* RAIN 52 50 93 E5 29.64R  
WARSAW* CLOUDY 45 43 93 E7 29.62R  
ANGOLA* CLOUDY 39 32 75 E10 29.65R  
FORT WAYNE CLOUDY 47 44 90 E18 29.59F THUNDER  
6HR MIN TEMP: 45; 6HR MAX TEMP: 50; 6HR PCP: 0.11;  
 
HUNTINGTON* TSTM 47 46 96 S6 29.65R  
6HR MIN TEMP: 46; 6HR MAX TEMP: 50; 6HR PCP: 0.66;  
 
PERU/GRISSOM LGT RAIN 56 56 100 W13 29.60R  
6HR MIN TEMP: 48; 6HR MAX TEMP: 56; 6HR PCP: 0.41;  
 
MARION* LGT RAIN 53 51 93 SW7 29.64R  
6HR MIN TEMP: 26; 6HR MAX TEMP: 75;  
 

 
INZ028>050-310100-  
CENTRAL INDIANA  
 
CITY SKY/WX TMP DP RH WIND PRES REMARKS
 
LAFAYETTE RAIN 56 55 97 NE3 29.58F FOG  
6HR MIN TEMP: 54; 6HR MAX TEMP: 59; 6HR PCP: 0.64;  
 
KOKOMO* RAIN 57 54 89 W20 29.61F  
6HR MIN TEMP: 49; 6HR MAX TEMP: 57; 6HR PCP: 0.42;  
 
MUNCIE* TSTM 58 55 90 W9G25 29.64R FOG  
6HR MIN TEMP: 56; 6HR MAX TEMP: 63; 6HR PCP: 0.27;  
 
INDIANAPOLIS TSTM 57 55 93 NW14 29.61R  
6HR MIN TEMP: 57; 6HR MAX TEMP: 73; 6HR PCP: 0.54;  
 

 
MIZ043>046-050>051-056>058-064>065-071>073-077>080-310100-  
SOUTHWEST LOWER MICHIGAN  
 
CITY SKY/WX TMP DP RH WIND PRES REMARKS
 
BATTLE CREEK CLOUDY 41 39 93 E14G21 29.67F  
6HR MIN TEMP: 40; 6HR MAX TEMP: 42; 6HR PCP: 0.25;  
 
BENTON HARBOR CLOUDY 45 40 82 E13 29.64R  
COLDWATER* CLOUDY 41 40 97 E15 29.66F  
6HR MIN TEMP: 41; 6HR MAX TEMP: 43;  
 
HILLSDALE* CLOUDY 37 37 100 NE14 29.67F  
HOLLAND CLOUDY 40 36 86 E14 29.70R  
6HR MIN TEMP: 39; 6HR MAX TEMP: 42; 6HR PCP: 0.51;  
 
GRAND RAPIDS CLOUDY 37 36 96 E20G28 29.69R  
6HR MIN TEMP: 36; 6HR MAX TEMP: 39; 6HR PCP: 0.34;  
 
KALAMAZOO CLOUDY 43 38 82 E9 29.67S  
6HR MIN TEMP: 41; 6HR MAX TEMP: 44; 6HR PCP: 0.25;  
 
STURGIS* CLOUDY 41 40 96 E13G20 29.63F  
6HR MIN TEMP: 41; 6HR MAX TEMP: 42; 6HR PCP: 0.17;  
 
THREE RIVERS* CLOUDY 42 39 91 E9G17 29.66R  
6HR MIN TEMP: 42; 6HR MAX TEMP: 43;  
 

 
OHZ001>008-015>018-024>025-310100-  
NORTHWEST OHIO  
 
CITY SKY/WX TMP DP RH WIND PRES REMARKS
 
WAUSEON* HVY RAIN 41 39 93 E14 29.71R  
DEFIANCE LGT RAIN 41 40 96 E15G21 29.65F  
6HR MIN TEMP: 41; 6HR MAX TEMP: 45; 6HR PCP: 0.87;  
 
FINDLAY LGT RAIN 50 45 83 N10G24 29.62R  
6HR MIN TEMP: 48; 6HR MAX TEMP: 51; 6HR PCP: 0.49;  
 
TOLEDO EXPRESS TSTM 40 40 100 NE16G22 29.69S FOG  
6HR MIN TEMP: 39; 6HR MAX TEMP: 43; 6HR PCP: 0.76;  
 
TOLEDO METCALF LGT RAIN 41 40 96 NE8G22 29.70R  
6HR MIN TEMP: 40; 6HR MAX TEMP: 42; 6HR PCP: 0.38;  
 
LIMA CLOUDY 53 50 89 E5 29.61S  
6HR MIN TEMP: 50; 6HR MAX TEMP: 54; 6HR PCP: 0.31;  
 

 
AND FOR LAKE MICHIGAN COASTAL AND OPEN LAKE BUOY OBSERVATIONS  
 
STATION/POSITION TEMP WIND PRES VSBY WAVE
 
AIR SEA DIR/SP/G HT/PER  
(F) (DEG/KT/KT) (MB) (MI) (FT/S)  
CALUMET HARBOR 41 20/ 8/ 11 1002.6R  
MICHIGAN CITY 47 80/ 10/ 12 N/A  
BURNS HARBOR 47 80/ 8/ 12 1003.0  
 

 

 
 
 
CLICK HERE TO GO TO PREVIOUS BULLETINS.

The Nexlab IN Page
The Nexlab OH Page
The Nexlab MI Page Main Text Page